Lid_Strength_Index
11 11 11 12 12 12 12 12 12 11 11 11 11 11 11 11 11 12 12 12 12 12 12 13 13 12 12 12 12 12 13 12 12 16 14 13 14 15 16 17 16 17 16
12 12 12 12 12 13 13 13 13 13 12 12 12 12 12 11 11 12 12 13 13 13 13 13 13 13 13 12 13 14 14 14 13 17 16 15 15 15 17 18 18 17 16
11 12 12 12 12 13 13 14 13 13 13 12 13 13 12 12 12 12 12 13 13 13 13 13 13 13 14 14 14 14 14 16 14 16 17 16 16 16 17 17 17 18 17
11 11 11 12 12 13 14 14 13 13 12 12 12 12 12 12 13 13 13 13 13 13 13 12 13 13 14 14 14 14 15 15 15 15 17 18 18 17 18 19 19 17 18
11 11 11 11 11 11 13 14 12 11 12 11 12 12 12 13 13 13 13 14 14 14 13 13 13 13 13 13 14 14 14 15 15 16 17 18 19 19 19 18 18 17 17
11 11 11 11 11 12 12 12 13 12 11 12 13 13 13 12 12 12 12 13 13 14 14 14 14 14 14 12 12 12 13 14 15 16 16 18 18 18 18 18 18 18 19
11 11 11 12 12 12 12 13 13 13 12 12 13 13 13 12 11 11 11 13 13 14 14 14 15 14 14 15 13 12 12 11 12 14 16 17 17 17 17 17 17 17 17
11 11 11 11 12 12 13 14 14 14 13 13 13 12 13 13 11 10 11 12 13 13 13 14 14 14 14 15 15 14 14 14 13 14 14 15 15 16 16 16 16 16 17
11 11 11 11 12 12 13 14 14 14 14 14 14 14 13 13 11 11 11 12 13 13 13 13 14 14 13 12 15 15 15 15 13 12 13 13 13 13 14 16 17 18 19
11 11 11 11 12 13 13 13 13 13 14 14 15 14 14 15 12 11 11 12 12 13 13 13 13 13 12 12 14 15 15 15 16 15 16 14 14 14 13 15 16 18 19
12 13 13 13 14 14 14 14 14 15 15 16 16 16 16 15 14 11 10 12 12 12 12 13 13 11 11 11 12 14 14 14 14 15 17 16 16 16 16 15 16 16 19
16 17 17 18 17 17 18 17 17 18 18 18 18 17 15 14 13 11 10 9 10 12 12 11 12 11 12 11 12 12 12 13 15 16 17 17 17 17 16 16 16 16 16
19 20 20 20 20 20 20 20 20 20 20 20 19 19 18 15 14 11 10 9 9 10 11 10 9 11 11 12 12 12 13 14 16 17 18 17 16 16 16 17 18 18 18
21 21 21 21 21 21 21 20 21 21 21 21 21 20 19 18 16 14 12 11 10 10 10 10 9 9 11 13 13 13 14 14 16 17 17 16 16 17 19 19 20 20 21
22 22 22 22 22 22 22 22 22 21 21 22 21 20 20 20 18 14 13 13 11 11 11 10 10 10 12 14 15 14 14 15 16 16 16 17 18 19 20 19 20 21 22
23 23 23 23 22 22 22 22 19 18 17 16 16 17 17 15 13 13 12 12 11 10 10 12 11 11 13 14 14 16 15 15 16 16 16 18 19 20 21 21 21 22 23
25 24 24 23 23 23 22 23 23 21 18 17 17 16 16 15 14 13 12 11 10 10 11 12 12 12 13 13 13 13 14 16 17 17 18 19 20 20 21 22 22 22 23
24 24 24 23 22 22 22 21 21 22 23 22 19 18 17 16 15 13 11 10 12 11 10 11 12 12 12 12 12 12 14 16 17 18 19 20 20 21 22 23 23 23 23
24 24 23 22 21 21 20 19 19 20 20 21 20 19 18 16 15 13 11 12 11 10 10 10 10 11 12 11 13 14 15 17 18 19 20 20 21 21 22 23 23 23 23
22 23 23 22 21 20 19 19 19 19 19 19 19 19 18 18 18 14 13 12 12 11 9 9 10 11 11 12 14 15 17 17 18 20 21 21 21 22 23 23 24 25 25
22 21 22 22 22 21 20 19 18 17 18 18 18 17 14 14 13 13 12 11 9 8 8 9 10 11 12 13 15 16 18 19 19 20 21 21 22 23 23 23 23 24 24
22 22 22 22 21 21 20 19 19 18 17 17 16 14 11 13 13 13 13 12 10 10 10 11 12 12 13 14 15 17 19 20 21 21 22 22 22 23 23 23 23 24 24
22 22 22 22 21 21 21 20 20 20 19 19 18 18 17 18 17 17 17 16 16 16 15 14 15 16 16 16 16 18 20 21 21 21 22 23 23 23 23 24 23 23 23
22 23 23 23 22 22 21 21 21 21 21 21 20 20 19 19 18 18 18 17 17 17 17 17 17 17 17 17 17 18 19 20 20 21 21 22 23 23 23 23 23 23 23
23 23 23 23 23 23 22 22 21 22 22 22 22 21 21 20 20 20 19 19 19 18 19 18 19 19 19 20 20 20 19 19 20 20 20 21 22 22 22 22 23 22 22
23 23 23 23 23 23 23 23 22 22 22 22 22 22 21 21 21 21 21 20 20 20 20 20 20 21 21 20 21 20 20 20 22 21 21 21 22 23 23 22 22 22 22